Weather History for Sumburgh, United Kingdom

Change the Weather History Date:

Sunday, February 24, 2013

  Actual Average Record
Temperature  
Mean Temperature 38 °F -  
Max Temperature 44 °F 43 °F 50 °F (1998)
Min Temperature 33 °F 38 °F 28 °F (2004)
Degree Days  
Heating Degree Days 26    
Moisture  
Dew Point 33 °F    
Average Humidity 79    
Maximum Humidity 93    
Minimum Humidity 61    
Precipitation  
Precipitation 0.00 in - - ()
Sea Level Pressure  
Sea Level Pressure 30.49 in    
Wind  
Wind Speed 4 mph ()    
Max Wind Speed 10 mph    
Max Gust Speed -    
Visibility 6.2 miles    
Events Rain    
Averages and records for this station are not official NWS values.
T = Trace of Precipitation, MM = Missing Value Source: Averaged Metar Reports

Daily Weather History Graph

Daily Weather History Graph

Search for Another Location

Airport:

Trip Planner

Search our weather history database for the weather conditions in past years. The results will help you decide how hot, cold, wet, or windy it might be!

Date:

Astronomy

Feb. 24, 2013 Rise Set
Actual Time 7:17 AM GMT 5:20 PM GMT
Civil Twilight 6:35 AM GMT 6:02 PM GMT
Nautical Twilight 5:47 AM GMT 6:50 PM GMT
Astronomical Twilight 4:59 AM GMT 7:39 PM GMT
Moon 4:12 PM GMT (2/24) 6:16 AM GMT (2/24)
Length of Visible Light 11h 27m
Length of Day
10h 02m
Waxing Gibbous, 98% of the Moon is Illuminated
Feb 24
Waxing Gibbous
Feb 25
Full
Mar 4
Last Quarter
Mar 11
New
Mar 19
First Quarter

Hourly Weather History & Observations

Time (GMT) Temp. Windchill Dew Point Humidity Pressure Visibility Wind Dir Wind Speed Gust Speed Precip Events Conditions
12:20 AM 35.6 °F - 32.0 °F 87% 30.45 in 6.2 mi NNW 2.3 mph - N/A   Unknown
12:50 AM 35.6 °F 32.8 °F 32.0 °F 87% 30.45 in 6.2 mi NNW 3.5 mph - N/A   Unknown
1:20 AM 37.4 °F 32.8 °F 33.8 °F 87% 30.45 in 6.2 mi NNW 5.8 mph - N/A   Unknown
1:50 AM 37.4 °F 32.8 °F 33.8 °F 87% 30.45 in 6.2 mi NNW 5.8 mph - N/A   Unknown
2:20 AM 37.4 °F 31.4 °F 33.8 °F 87% 30.45 in 6.2 mi North 8.1 mph - N/A   Partly Cloudy
2:50 AM 37.4 °F 33.8 °F 33.8 °F 87% 30.45 in 6.2 mi NNW 4.6 mph - N/A Rain Light Rain Showers
3:20 AM 35.6 °F 31.7 °F 32.0 °F 87% 30.45 in 6.2 mi North 4.6 mph - N/A   Unknown
3:50 AM 35.6 °F 32.8 °F 32.0 °F 87% 30.45 in 6.2 mi North 3.5 mph - N/A   Unknown
4:20 AM 33.8 °F 29.6 °F 30.2 °F 87% 30.45 in 6.2 mi North 4.6 mph - N/A   Unknown
4:50 AM 33.8 °F 29.6 °F 30.2 °F 87% 30.45 in 6.2 mi North 4.6 mph - N/A   Unknown
5:20 AM 35.6 °F 28.0 °F 33.8 °F 93% 30.45 in 6.2 mi North 10.4 mph - N/A   Light Drizzle
5:50 AM 35.6 °F 32.8 °F 32.0 °F 87% 30.45 in 6.2 mi NNE 3.5 mph - N/A   Partly Cloudy
6:20 AM 37.4 °F 31.4 °F 33.8 °F 87% 30.45 in 6.2 mi North 8.1 mph - N/A Rain Light Rain Showers
6:50 AM 37.4 °F 32.8 °F 33.8 °F 87% 30.45 in 6.2 mi North 5.8 mph - N/A   Mostly Cloudy
7:20 AM 37.4 °F 31.4 °F 33.8 °F 87% 30.48 in 6.2 mi North 8.1 mph - N/A   Partly Cloudy
7:50 AM 37.4 °F 31.4 °F 35.6 °F 93% 30.48 in 6.2 mi North 8.1 mph - N/A   Mostly Cloudy
8:20 AM 37.4 °F 31.4 °F 35.6 °F 93% 30.48 in 6.2 mi NNE 8.1 mph - N/A   Scattered Clouds
8:50 AM 39.2 °F 33.6 °F 35.6 °F 87% 30.48 in 6.2 mi North 8.1 mph - N/A   Partly Cloudy
9:20 AM 41.0 °F 35.8 °F 37.4 °F 87% 30.48 in 6.2 mi North 8.1 mph - N/A   Scattered Clouds
9:50 AM 42.8 °F 39.3 °F 39.2 °F 87% 30.48 in 6.2 mi North 5.8 mph - N/A   Scattered Clouds
10:20 AM 42.8 °F 39.3 °F 39.2 °F 87% 30.48 in 6.2 mi NNE 5.8 mph - N/A   Scattered Clouds
10:50 AM 42.8 °F 39.3 °F 39.2 °F 87% 30.48 in 6.2 mi NNE 5.8 mph - N/A   Mostly Cloudy
11:20 AM 42.8 °F 38.0 °F 35.6 °F 76% 30.51 in 6.2 mi ENE 8.1 mph - N/A   Mostly Cloudy
11:50 AM 42.8 °F 40.1 °F 33.8 °F 70% 30.51 in 6.2 mi ENE 4.6 mph - N/A   Scattered Clouds
12:50 PM 44.6 °F - 33.8 °F 66% 30.48 in 6.2 mi ENE 2.3 mph - N/A   Scattered Clouds
1:20 PM 44.6 °F 42.2 °F 33.8 °F 66% 30.48 in 6.2 mi ENE 4.6 mph - N/A   Scattered Clouds
1:50 PM 44.6 °F 41.4 °F 35.6 °F 71% 30.48 in 6.2 mi NE 5.8 mph - N/A   Mostly Cloudy
2:20 PM 44.6 °F 41.4 °F 33.8 °F 66% 30.48 in 6.2 mi ENE 5.8 mph - N/A   Mostly Cloudy
2:50 PM 44.6 °F 41.4 °F 33.8 °F 66% 30.51 in 6.2 mi NE 5.8 mph - N/A   Mostly Cloudy
3:20 PM 44.6 °F 41.4 °F 32.0 °F 61% 30.51 in 6.2 mi NE 5.8 mph - N/A   Mostly Cloudy
3:50 PM 44.6 °F - 32.0 °F 61% 30.48 in 6.2 mi Calm Calm - N/A   Mostly Cloudy
4:20 PM 44.6 °F 41.4 °F 33.8 °F 66% 30.48 in 6.2 mi NE 5.8 mph - N/A   Mostly Cloudy
4:50 PM 42.8 °F 40.1 °F 33.8 °F 70% 30.51 in 6.2 mi NE 4.6 mph - N/A   Mostly Cloudy
5:20 PM 41.0 °F - 32.0 °F 70% 30.51 in 6.2 mi Calm Calm - N/A   Mostly Cloudy
5:50 PM 41.0 °F 39.0 °F 33.8 °F 76% 30.51 in 6.2 mi NE 3.5 mph - N/A   Mostly Cloudy
6:20 PM 42.8 °F 40.1 °F 33.8 °F 70% 30.51 in 6.2 mi ENE 4.6 mph - N/A   Mostly Cloudy
6:50 PM 41.0 °F 37.1 °F 32.0 °F 70% 30.51 in 6.2 mi NNE 5.8 mph - N/A   Mostly Cloudy
7:20 PM 41.0 °F 39.0 °F 32.0 °F 70% 30.51 in 6.2 mi NNE 3.5 mph - N/A   Mostly Cloudy
7:50 PM 41.0 °F 37.1 °F 32.0 °F 70% 30.51 in 6.2 mi NE 5.8 mph - N/A   Mostly Cloudy
8:20 PM 41.0 °F 38.0 °F 32.0 °F 70% 30.54 in 6.2 mi NE 4.6 mph - N/A   Mostly Cloudy
8:50 PM 39.2 °F 37.0 °F 32.0 °F 75% 30.54 in 6.2 mi North 3.5 mph - N/A   Mostly Cloudy
9:20 PM 41.0 °F 39.0 °F 32.0 °F 70% 30.54 in 6.2 mi NNW 3.5 mph - N/A   Mostly Cloudy
9:50 PM 37.4 °F - 30.2 °F 75% 30.54 in 6.2 mi North 2.3 mph - N/A   Scattered Clouds
10:20 PM 37.4 °F - 32.0 °F 81% 30.54 in 6.2 mi North 2.3 mph - N/A   Scattered Clouds
10:50 PM 39.2 °F - 32.0 °F 75% 30.54 in 6.2 mi Calm Calm - N/A   Overcast
11:20 PM 37.4 °F - 30.2 °F 75% 30.54 in 6.2 mi Calm Calm - N/A   Scattered Clouds
11:50 PM 35.6 °F - 30.2 °F 81% 30.54 in 6.2 mi Calm Calm - N/A   Mostly Cloudy